User: anonymous   Login
Location: STAR School
(35.3054°N, 111.2976°W)
Time: 03:20:07
(UTC-07:00)
Language:

CUTE 1.7 + AOD 2 - Orbit

View from above orbital plane
View from above orbital plane
View from above satellite
View from above satellite

Ground track
Ground track

The orbit data is extracted from the following two-line orbital elements,

1 32785U 08021C   19114.48768250 +.00000220 +00000-0 +29379-4 0  9990
2 32785 097.5499 116.8076 0014709 086.6477 273.6423 14.88283603595401
Epoch (UTC): 24 April 2019 11:42:15
Eccentricity: 0.0014709
inclination: 97.5499°
perigee height: 593 km
apogee height: 613 km
right ascension of ascending node: 116.8076°
argument of perigee: 86.6477°
revolutions per day: 14.88283603
mean anomaly at epoch: 273.6423°
orbit number at epoch: 59540

The dashed part of the orbit path shows where the satellite is in the earth's shadow,  

DLR